Showing default

GEESAT 4-02, 65120

Orbit data source: Space-Track

GEESAT 4-02, 65120 is a payload satellite owned by GeeSpace (CN) in LEO that was launched on Fri, 08 Aug 2025 UTC via a JIELONG-3 launch vehicle from the Yellow Sea Launch Area, China (YSLA). Payload-class satellites include a variety of spacecraft equipped with specific instruments for various scientific and technological missions. These include communications satellites like Starlink; space stations such as the ISS; scientific satellites like the Hubble; Earth observation satellites from companies like Planet Labs, Umbra, and HawkEye 360; GPS; miniature CubeSats for education and research; and military/defense satellites.

Loading next visibility...
Identifier
65120, 2025-170B
Orbit
LEO
Country
Flag of CNCN / PRC
Related business
Manufacturer
GWCG
Mission
Operational Commercial Navigation
Bus & Motor
GPS100, Unknown motor
Mass
130 kg wet, 130 kg dry
Launch date (UTC)
2025-08-08 (6 months ago)
Launch vehicle
JIELONG-3
Launch site
Yellow Sea Launch Area, China (YSLA)
Object type
Payload
Rocket body
Debris
Shape & HBR
Box + 2 Pan, 14.5 m
Radar Cross Section
0.833 m², Medium (>0.1 m² and < 1m²)

Expand to show TLE details & history
Last TLE update: 16 hours ago

TLE from 16 hours ago
0 GEESAT 4-02
1 65120U 25170B   26034.60361790  .00002792  00000-0  36050-3 0  9993
2 65120  49.9852  73.6144 0010789 295.7423  64.2402 14.83777374 26620
Epoch: 2026-02-03T14:29Z
TLE epoch observation values (Epoch: 2026-02-03T14:29:12.586Z)
Latitude
0.00004°
Longitude
82.52981°
Altitude
614.695 km
Speed
7.555 km/s
True Right ascension
04h 54m 27s
True Declination
0° 00' 00"
Sunlit
Object was in full shadow at epoch
Visualization orbit readout
Latitude
Unknown
Longitude
Unknown
Altitude
Unknown
Speed
Unknown
Apparent Right ascension
Unknown
Apparent Declination
Unknown
Sunlit
N/A
Visualization observer readout
Local Sidereal Time
08:38:10
Azimuth
Unknown
Elevation
Unknown
Doppler factor
Unknown
Orbital elements
Apogee altitude
625.735 km
Perigee altitude
610.639 km
Semi-major axis
6,996.324 km
Eccentricity
0.00108
Inclination
49.9852°
RAAN
73.6144°
Arg. of periapsis
295.7423°
True anomaly
64.35161°
Mean anomaly
64.2402°
Eccentric anomaly
64.2959°
Mean motion
3.70884 °/min
Orbital period
97.07 mins
BSTAR
0.0003605
Loading maneuver chart data...
Computing Atmospheric mass density...
Loading historical data...
Loading historical data...
Loading historical data...
Loading historical data...
Loading historical data...
Loading historical data...
Loading historical data...

Documentation

Showing up to 5 results
|